KBOIKLLJ

Guest
Details From KBOI - Boise Air Terminal (Gowen Field)
To KLLJ - CHALLIS
Flight Number -
Tags generated
Created
Modified
Stats Distance 104 nm / 193 km
Max Altitude 8,000 ft / 2,438 m
Waypoints 3
Social Downloads 0
Likes 0
Share VATSIM

Download

Looking for another format? Having issues loading an existing format? Contact us
Advertisement - Login to hide

Notes

Basic altitude profile: - Ascent Rate: 1800ft/min - Ascent Speed: 250kts - Cruise Altitude: 13000ft - Cruise Speed: 325kts - Descent Rate: 1800ft/min - Descent Speed: 180kts Options: - Use NATs: yes - Use PACOTS: yes - Use low airways: yes - Use high airways: yes

Route

KBOI PLUTO KLLJ

ID Type Via Altitude Latitude Longitude Leg Dist Tot Dist Heading (true) Name
O KBOI APT - 0 ft / 0 m 43.55624˚ -116.21495˚ - 0 nm - Boise Air Terminal (Gowen Field)
PLUTO FIX - 8,000 ft / 2,438 m 43.81092˚ -115.83319˚ 22 nm 22 nm 47° / 47° -
O KLLJ APT - 0 ft / 0 m 44.52292˚ -114.21750˚ 81 nm 104 nm 58° / 59° CHALLIS

Altitude Profile

Advertisement - Login to hide

KBOI

Details ICAO KBOI (BOI)
Name Boise Air Terminal (Gowen Field)
Region United States
Timezone America/Boise (UTC-7.0)
Stats Elevation 2,871 ft / 875 m (AMSL)
Location 43.556241° -116.214953°
Runways 3
Magnetic Variation 13.354° E

METAR

KBOI 162353Z 30014KT 10SM CLR 02/M04 A3011 RMK AO2 SLP217 T00171039 10022 21022 53007

Decode

TAF

KBOI 162327Z 1700/1724 31012KT P6SM SKC FM170100 21004KT P6SM FEW250 FM170900 VRB05KT 4SM BR FEW250 FM171800 15004KT P6SM BKN100 OVC250

Decode

Departure Runways

ID Width Length Bearing (true) Bearing (mag) Surface Threshold Offset Overrun Length
09 75 ft / 23 m 4,989 ft / 1,521 m 105.05° 91.70° Asphalt 0 ft / 0 m 200 ft / 61 m
10L 150 ft / 46 m 9,981 ft / 3,042 m 115.21° 101.86° Asphalt 0 ft / 0 m 0 ft / 0 m
10R 150 ft / 46 m 9,745 ft / 2,970 m 115.20° 101.85° Asphalt 0 ft / 0 m 200 ft / 61 m
27 75 ft / 23 m 4,989 ft / 1,521 m 285.06° 271.71° Asphalt 0 ft / 0 m 0 ft / 0 m
28L 150 ft / 46 m 9,745 ft / 2,970 m 295.23° 281.88° Asphalt 0 ft / 0 m 200 ft / 61 m
28R 150 ft / 46 m 9,981 ft / 3,042 m 295.23° 281.88° Asphalt 0 ft / 0 m 200 ft / 61 m

KLLJ

Details ICAO KLLJ
Name CHALLIS
Region United States
Timezone America/Boise (UTC-7.0)
Stats Elevation 5,072 ft / 1,546 m (AMSL)
Location 44.522917° -114.217500°
Runways 1
Magnetic Variation 12.895° E

METAR

KLLJ 162355Z AUTO 31004KT 10SM FEW055 OVC085 M02/M08 A3002 RMK AO2 SLP195 T10171078 10022 21039 53010

Decode

TAF

Not found

Destination Runways

ID Width Length Bearing (true) Bearing (mag) Surface Threshold Offset Overrun Length
16 60 ft / 18 m 4,564 ft / 1,391 m 181.82° 168.93° Asphalt 0 ft / 0 m 0 ft / 0 m
34 60 ft / 18 m 4,564 ft / 1,391 m 1.82° 348.93° Asphalt 0 ft / 0 m 0 ft / 0 m

Popular Alternatives